Location: Capelle
(50.3413°N, 1.9974°E)
Time: 23:49:25
(UTC+00:00)

Nadezhda 1 Rocket - Pass Details

Date: 12 January 2026
Orbit: 941 x 1004 km, 83.0° (Epoch: 9 February)

Event Time Altitude Azimuth Distance (km) Brightness Sun altitude
Rises 16:39:53 0° 169° (S) 3,601 7.2 -4.5°
Reaches altitude 10° 16:42:25 10° 164° (SSE) 2,656 6.5 -4.9°
Maximum altitude 16:48:13 50° 91° (E) 1,187 4.2 -5.7°
Drops below altitude 10° 16:54:03 10° 18° (NNE) 2,671 5.9 -6.5°
Sets 16:56:37 0° 14° (NNE) 3,624 6.6 -6.9°
